Regional Weather Roundup
Issued by NWS

Home | Current Version | Previous Version | Text Only | Print | Product List | Glossary On
Versions: 1 2 3 4 5 6 7 8 9 10 11 12 13 14 15 16 17 18 19 20 21 22 23 24 25 26 27 28 29 30 31 32 33 34 35 36 37 38 39 40 41 42 43 44 45 46 47 48 49 50
000
ASUS42 KKEY 220010
RWRKEY

FLORIDA REGIONAL WEATHER ROUNDUP FOR THE FLORIDA KEYS
NATIONAL WEATHER SERVICE KEY WEST FLORIDA
700 PM EST FRI NOV 21 2014

...SOUTH FLORIDA AND THE KEYS...

CITY           SKY/WX    TMP DP  RH WIND       PRES   REMARKS
FORT MYERS     CLOUDY    68  60  75 NE12G21   30.17R
SW REGIONAL AP CLOUDY    67  60  78 NE13      30.18R
NAPLES         CLOUDY    69  64  84 NE17      30.15R
MIAMI          CLOUDY    73  67  81 NE10      30.15R
WEST KENDALL   CLOUDY    72  67  84 NE14      30.15R
HOMESTEAD      LGT RAIN  71  69  92 NE16G23   30.13S
MARATHON       LGT RAIN  73  72  96 NE18      30.09R
BOCA CHICA NAS CLOUDY    70  69  97 NE17G28   30.09R
KEY WEST INTL  CLOUDY    72  72 100 NE15G23   30.09R

...INTERNATIONAL WEATHER...

CITY           SKY/WX    TMP DP  RH WIND       PRES   REMARKS
NASSAU BAHAMAS CLOUDY    77  72  83 NE15      30.14R
CANCUN MEXICO  PTCLDY    77  73  88 NE2       30.02R
COZUMEL MEXICO PTCLDY    75  70  83 E7        30.02R

ADJACENT COASTAL WATERS...

STATION/POSITION TIME  SKY/WX   TEMP    WIND        PRES    WAVE
                                AIR SEA DIR/SP/G            HT/PER
                 (UTC)          (F)     (DEG/KT/KT) (MB)    (FT/S)
PULASKI SHOAL LI 2300            73      70/ 29/ 32 1018.4R
SAND KEY         0000            72      50/ 26/ 32 1018.4R
SOMBRERO KEY     0000            74      60/ 26/ 29 1018.5R
LONG KEY         2259            72 72   60/ 20/ 22 1019.5R
MOLASSES REEF    0000            76 78   70/ 25/ 29 1019.2R
FOWEY ROCKS      NOT AVBL
Buoy 42080       NOT AVBL

$$


USA.gov is the U.S. government's official web portal to all federal, state and local government web resources and services.